Location: Bouchavesnes-Bergen
(49.9859°N, 2.9203°E)
Time: 11:47:06
(UTC+00:00)

COSMOS 2428 - Pass Details

Date: 09 March 2021
Orbit: 845 x 858 km, 70.9° (Epoch: 13 April)

Event Time Altitude Azimuth Distance (km) Brightness Sun altitude
Rises 04:51:18 0° 326° (NW) 3,431 5.6 -14.2°
Reaches altitude 10° 04:53:52 10° 320° (NW) 2,493 4.9 -13.8°
Maximum altitude 04:59:11 42° 251° (WSW) 1,214 3.1 -12.9°
Drops below altitude 10° 05:04:30 10° 183° (S) 2,483 5.0 -12.1°
Sets 05:07:04 0° 176° (S) 3,416 5.8 -11.7°
